Weslaco, TX

10:31 AM CDT on May 21, 2018 (GMT -0500)
Weslaco

Weather History for KT65 - November, 2011

Change the Weather History Date:

Friday, November 25, 2011

  Actual Average (KMFE) Record (KMFE)
Temperature  
Mean Temperature 72 °F -  
Max Temperature 84 °F 74 °F 94 °F (1942)
Min Temperature 60 °F 55 °F 39 °F (1975)
Cooling Degree Days 7    
Growing Degree Days 22 (Base 50)    
Moisture  
Dew Point 59 °F    
Average Humidity 66    
Maximum Humidity 83    
Minimum Humidity 42    
Precipitation  
Precipitation 0.00 in - - ()
Sea Level Pressure  
Sea Level Pressure 29.97 in    
Wind  
Wind Speed 8 mph (SSE)    
Max Wind Speed 20 mph    
Max Gust Speed 26 mph    
Visibility 10 miles    
Events      
Averages and records for this station are not official NWS values.
T = Trace of Precipitation, MM = Missing Value Source: NWS Daily Summary

Daily Weather History Graph

Daily Weather History Graph

Search for Another Location

Airport or City:

Astronomy

Nov. 25, 2011 Rise Set
Actual Time 6:57 AM CST 5:39 PM CST
Civil Twilight 6:32 AM CST 6:04 PM CST
Nautical Twilight 6:04 AM CST 6:32 PM CST
Astronomical Twilight 5:36 AM CST 7:00 PM CST
Moon 7:22 AM CST (11/25) 6:14 PM CST (11/25)
Length of Visible Light 11h 31m
Length of Day
10h 42m
New Moon, 0% of the Moon is Illuminated
Nov 25
New Moon
Dec 2
First Quarter
Dec 10
Full
Dec 17
Last Quarter
Dec 24
New

Hourly Weather History & Observations

Time (CST) Temp. Heat Index Dew Point Humidity Pressure Visibility Wind Dir Wind Speed Gust Speed Precip Events Conditions
12:15 AM 62.6 °F - 53.6 °F 72% 30.12 in 10.0 mi SE 3.5 mph - N/A   Clear
1:15 AM 60.8 °F - 53.6 °F 77% 30.10 in 10.0 mi SE 3.5 mph - N/A   Clear
1:35 AM 60.8 °F - 53.6 °F 77% 30.09 in 10.0 mi SE 4.6 mph - N/A   Clear
1:55 AM 60.8 °F - 53.6 °F 77% 30.08 in 10.0 mi SE 3.5 mph - N/A   Clear
2:15 AM 60.8 °F - 53.6 °F 77% 30.07 in 10.0 mi Calm Calm - N/A   Clear
2:35 AM 60.8 °F - 53.6 °F 77% 30.07 in 10.0 mi SE 3.5 mph - N/A   Clear
2:55 AM 60.8 °F - 53.6 °F 77% 30.06 in 10.0 mi SE 3.5 mph - N/A   Clear
3:15 AM 60.8 °F - 55.4 °F 82% 30.05 in 10.0 mi SE 5.8 mph - N/A   Clear
3:35 AM 62.6 °F - 55.4 °F 77% 30.05 in 10.0 mi SE 5.8 mph - N/A   Clear
4:35 AM 62.6 °F - 55.4 °F 77% 30.04 in 10.0 mi SSE 3.5 mph - N/A   Clear
4:55 AM 60.8 °F - 55.4 °F 82% 30.03 in 10.0 mi SE 4.6 mph - N/A   Clear
5:15 AM 60.8 °F - 55.4 °F 82% 30.03 in 10.0 mi SSE 3.5 mph - N/A   Mostly Cloudy
5:35 AM 60.8 °F - 55.4 °F 82% 30.03 in 10.0 mi SE 3.5 mph - N/A   Scattered Clouds
5:55 AM 60.8 °F - 55.4 °F 82% 30.03 in 10.0 mi SE 3.5 mph - N/A   Clear
6:15 AM 60.8 °F - 55.4 °F 82% 30.03 in 10.0 mi Calm Calm - N/A   Clear
6:55 AM 60.8 °F - 55.4 °F 82% 30.04 in 10.0 mi Calm Calm - N/A   Overcast
7:15 AM 62.6 °F - 55.4 °F 77% 30.04 in 10.0 mi Calm Calm - N/A   Overcast
7:55 AM 64.4 °F - 59.0 °F 83% 30.04 in 10.0 mi Calm Calm - N/A   Scattered Clouds
8:15 AM 69.8 °F - 59.0 °F 68% 30.03 in 10.0 mi SE 9.2 mph - N/A   Clear
8:35 AM 71.6 °F - 60.8 °F 69% 30.03 in 10.0 mi SE 8.1 mph - N/A   Clear
8:55 AM 71.6 °F - 60.8 °F 69% 30.03 in 10.0 mi SE 8.1 mph 17.3 mph N/A   Scattered Clouds
9:15 AM 75.2 °F - 60.8 °F 61% 30.03 in 10.0 mi SSE 9.2 mph - N/A   Scattered Clouds
9:35 AM 75.2 °F - 62.6 °F 65% 30.02 in 10.0 mi SSE 11.5 mph 19.6 mph N/A   Scattered Clouds
10:15 AM 77.0 °F - 62.6 °F 61% 30.01 in 10.0 mi SSE 11.5 mph 21.9 mph N/A   Mostly Cloudy
10:35 AM 78.8 °F - 62.6 °F 57% 30.01 in 10.0 mi South 12.7 mph 24.2 mph N/A   Mostly Cloudy
10:55 AM 80.6 °F 81.8 °F 62.6 °F 54% 30.00 in 10.0 mi South 17.3 mph 20.7 mph N/A   Mostly Cloudy
11:15 AM 80.6 °F 81.8 °F 62.6 °F 54% 29.99 in 10.0 mi South 15.0 mph 21.9 mph N/A   Mostly Cloudy
11:35 AM 82.4 °F 83.4 °F 62.6 °F 51% 29.98 in 10.0 mi SSE 12.7 mph 19.6 mph N/A   Mostly Cloudy
11:55 AM 80.6 °F 81.8 °F 62.6 °F 54% 29.96 in 10.0 mi SSE 15.0 mph 23.0 mph N/A   Mostly Cloudy
12:15 PM 80.6 °F 81.5 °F 60.8 °F 51% 29.95 in 10.0 mi South 13.8 mph 20.7 mph N/A   Overcast
12:35 PM 82.4 °F 82.9 °F 60.8 °F 48% 29.93 in 10.0 mi SE 18.4 mph 25.3 mph N/A   Mostly Cloudy
12:55 PM 82.4 °F 82.9 °F 60.8 °F 48% 29.92 in 10.0 mi South 18.4 mph 24.2 mph N/A   Mostly Cloudy
1:15 PM 84.2 °F 83.8 °F 59.0 °F 42% 29.91 in 10.0 mi South 18.4 mph 24.2 mph N/A   Scattered Clouds
2:15 PM 82.4 °F 82.5 °F 59.0 °F 45% 29.87 in 10.0 mi SSE 16.1 mph 24.2 mph N/A   Mostly Cloudy
2:35 PM 82.4 °F 82.5 °F 59.0 °F 45% 29.87 in 10.0 mi SSE 19.6 mph 26.5 mph N/A   Mostly Cloudy
3:15 PM 82.4 °F 82.5 °F 59.0 °F 45% 29.85 in 10.0 mi SSE 19.6 mph 26.5 mph N/A   Scattered Clouds
3:35 PM 82.4 °F 82.5 °F 59.0 °F 45% 29.85 in 10.0 mi SSE 18.4 mph 26.5 mph N/A   Scattered Clouds
3:55 PM 80.6 °F 81.1 °F 59.0 °F 48% 29.85 in 10.0 mi South 19.6 mph 23.0 mph N/A   Scattered Clouds
4:15 PM 80.6 °F 81.1 °F 59.0 °F 48% 29.85 in 10.0 mi SSE 15.0 mph 24.2 mph N/A   Scattered Clouds
5:15 PM 78.8 °F - 60.8 °F 54% 29.84 in 10.0 mi SSE 15.0 mph 21.9 mph N/A   Clear
5:55 PM 77.0 °F - 62.6 °F 61% 29.84 in 10.0 mi SE 16.1 mph 23.0 mph N/A   Scattered Clouds
6:15 PM 75.2 °F - 62.6 °F 65% 29.85 in 10.0 mi SSE 16.1 mph 19.6 mph N/A   Scattered Clouds
6:35 PM 75.2 °F - 62.6 °F 65% 29.85 in 10.0 mi SSE 13.8 mph - N/A   Clear
6:55 PM 73.4 °F - 62.6 °F 69% 29.85 in 10.0 mi SSE 11.5 mph 17.3 mph N/A   Clear
7:35 PM 73.4 °F - 64.4 °F 73% 29.86 in 10.0 mi SSE 12.7 mph 16.1 mph N/A   Clear
7:55 PM 73.4 °F - 64.4 °F 73% 29.86 in 10.0 mi SSE 13.8 mph 19.6 mph N/A   Clear
8:15 PM 73.4 °F - 64.4 °F 73% 29.86 in 10.0 mi SSE 11.5 mph - N/A   Clear
8:35 PM 73.4 °F - 64.4 °F 73% 29.86 in 10.0 mi SSE 12.7 mph 18.4 mph N/A   Clear
8:55 PM 73.4 °F - 64.4 °F 73% 29.87 in 10.0 mi SSE 12.7 mph 19.6 mph N/A   Clear
9:15 PM 71.6 °F - 64.4 °F 78% 29.87 in 10.0 mi SSE 11.5 mph 19.6 mph N/A   Clear
10:15 PM 71.6 °F - 64.4 °F 78% 29.86 in 10.0 mi SSE 10.4 mph - N/A   Scattered Clouds
10:35 PM 71.6 °F - 64.4 °F 78% 29.85 in 10.0 mi SSE 10.4 mph - N/A   Scattered Clouds
10:55 PM 71.6 °F - 64.4 °F 78% 29.84 in 10.0 mi SSE 10.4 mph - N/A   Clear
11:35 PM 71.6 °F - 64.4 °F 78% 29.83 in 10.0 mi SE 11.5 mph 18.4 mph N/A   Clear
11:55 PM 71.6 °F - 64.4 °F 78% 29.83 in 10.0 mi SSE 10.4 mph 17.3 mph N/A   Clear